• In Hungary
  • List of Countries
  • For 7 days
  • Water Temperature
  • Satellite Maps
  • Weather Map
  • News
  • Weather Widgets
  • user-avatar
    Login

    Hourly Weather Tena

    Today, 22 May, Tuesday

    Time Temperature Precipitation Wind Pressure Humidity
    00:00 +22°C° 0 mm 1 mps 707 mmHg 86%
    01:00 +22°C° 0 mm 1 mps 707 mmHg 85%
    02:00 +22°C° 0 mm 1 mps 706 mmHg 83%
    03:00 +22°C° 0 mm 1 mps 706 mmHg 82%
    04:00 +22°C° 0 mm 1 mps 706 mmHg 80%
    05:00 +22°C° 0 mm 1 mps 707 mmHg 78%
    06:00 +23°C° 0 mm 1 mps 707 mmHg 76%
    07:00 +24°C° 0 mm 1 mps 708 mmHg 71%
    08:00 +26°C° 0 mm 1 mps 708 mmHg 66%
    09:00 +28°C° 0 mm 1 mps 708 mmHg 60%
    10:00 +30°C° 0 mm 2 mps 708 mmHg 55%
    11:00 +31°C° 0.1 mm 2 mps 708 mmHg 54%
    12:00 +31°C° 0.1 mm 2 mps 707 mmHg 52%
    13:00 +32°C° 0.1 mm 2 mps 707 mmHg 51%
    14:00 +32°C° 0.4 mm 2 mps 706 mmHg 56%
    15:00 +31°C° 0.4 mm 1 mps 706 mmHg 60%
    16:00 +30°C° 0.4 mm 1 mps 705 mmHg 65%
    17:00 +28°C° 0.9 mm 1 mps 705 mmHg 73%
    18:00 +26°C° 0.9 mm 1 mps 705 mmHg 82%
    19:00 +22°C° 0.9 mm 0 mps 705 mmHg 90%
    20:00 +24°C° 0.9 mm 1 mps 706 mmHg 90%
    21:00 +23°C° 0.9 mm 1 mps 706 mmHg 89%
    22:00 +23°C° 0.9 mm 1 mps 707 mmHg 89%
    23:00 +23°C° 0.7 mm 1 mps 707 mmHg 88%

    Tomorrow, 23 May, Wednesday

    Time Temperature Precipitation Wind Pressure Humidity
    00:00 +23°C° 0.7 mm 1 mps 707 mmHg 86%
    01:00 +23°C° 0.7 mm 1 mps 707 mmHg 85%
    02:00 +23°C° 0.6 mm 1 mps 707 mmHg 84%
    03:00 +23°C° 0.6 mm 1 mps 707 mmHg 83%
    04:00 +23°C° 0.6 mm 1 mps 707 mmHg 83%
    05:00 +23°C° 0.5 mm 1 mps 707 mmHg 82%
    06:00 +23°C° 0.5 mm 1 mps 707 mmHg 81%
    07:00 +23°C° 0.5 mm 1 mps 708 mmHg 81%
    08:00 +25°C° 0.3 mm 1 mps 708 mmHg 77%
    09:00 +26°C° 0.3 mm 1 mps 708 mmHg 72%
    10:00 +28°C° 0.3 mm 1 mps 709 mmHg 68%
    11:00 +28°C° 0.2 mm 1 mps 708 mmHg 69%
    12:00 +28°C° 0.2 mm 1 mps 708 mmHg 70%
    13:00 +28°C° 0.2 mm 1 mps 708 mmHg 71%
    14:00 +28°C° 0.2 mm 1 mps 707 mmHg 73%
    15:00 +27°C° 0.2 mm 1 mps 706 mmHg 75%
    16:00 +25°C° 0.2 mm 0 mps 706 mmHg 77%
    17:00 +24°C° 0.1 mm 0 mps 706 mmHg 80%
    18:00 +23°C° 0.1 mm 0 mps 706 mmHg 84%
    19:00 +22°C° 0.1 mm 0 mps 707 mmHg 88%
    20:00 +22°C° 0.2 mm 0 mps 707 mmHg 86%
    21:00 +22°C° 0.2 mm 0 mps 708 mmHg 84%
    22:00 +23°C° 0.2 mm 1 mps 708 mmHg 82%
    23:00 +23°C° 0.2 mm 1 mps 708 mmHg 82%

    Day after tomorrow, 24 May, Thursday

    Time Temperature Precipitation Wind Pressure Humidity
    00:00 +23°C° 0.2 mm 1 mps 708 mmHg 82%
    01:00 +23°C° 0.2 mm 1 mps 708 mmHg 83%
    02:00 +23°C° 0.2 mm 1 mps 708 mmHg 82%
    03:00 +23°C° 0.2 mm 1 mps 707 mmHg 82%
    04:00 +23°C° 0.2 mm 1 mps 707 mmHg 82%
    05:00 +23°C° 0.2 mm 1 mps 707 mmHg 82%
    06:00 +23°C° 0.2 mm 1 mps 708 mmHg 81%
    07:00 +21°C° 0.2 mm 0 mps 708 mmHg 81%
    08:00 +24°C° 0.4 mm 1 mps 708 mmHg 79%
    09:00 +25°C° 0.4 mm 1 mps 709 mmHg 78%
    10:00 +26°C° 0.4 mm 1 mps 709 mmHg 77%
    11:00 +25°C° 1.5 mm 1 mps 709 mmHg 83%
    12:00 +24°C° 1.5 mm 1 mps 708 mmHg 88%
    13:00 +23°C° 1.5 mm 1 mps 708 mmHg 93%
    14:00 +24°C° 0.4 mm 1 mps 707 mmHg 88%
    15:00 +25°C° 0.4 mm 1 mps 707 mmHg 82%
    16:00 +26°C° 0.4 mm 1 mps 706 mmHg 77%
    17:00 +23°C° 0.4 mm 0 mps 707 mmHg 82%
    18:00 +22°C° 0.4 mm 0 mps 707 mmHg 87%
    19:00 +21°C° 0.4 mm 0 mps 707 mmHg 92%
    20:00 +23°C° 0.6 mm 1 mps 708 mmHg 91%
    21:00 +23°C° 0.6 mm 1 mps 708 mmHg 90%
    22:00 +23°C° 0.6 mm 1 mps 709 mmHg 88%
    23:00 +23°C° 0.8 mm 1 mps 708 mmHg 88%

    25 May, Friday

    Time Temperature Precipitation Wind Pressure Humidity
    00:00 +23°C° 0.8 mm 1 mps 708 mmHg 87%
    01:00 +23°C° 0.8 mm 1 mps 708 mmHg 87%
    02:00 +23°C° 1.2 mm 1 mps 708 mmHg 87%
    03:00 +23°C° 1.2 mm 1 mps 707 mmHg 88%
    04:00 +23°C° 1.2 mm 1 mps 707 mmHg 88%
    05:00 +23°C° 0.9 mm 1 mps 707 mmHg 89%
    06:00 +23°C° 0.9 mm 1 mps 707 mmHg 90%
    07:00 +23°C° 0.9 mm 1 mps 708 mmHg 91%
    08:00 +23°C° 0.7 mm 1 mps 708 mmHg 88%
    09:00 +22°C° 0.7 mm 0 mps 708 mmHg 86%
    10:00 +23°C° 0.7 mm 0 mps 709 mmHg 84%
    11:00 +23°C° 0.9 mm 0 mps 708 mmHg 83%
    12:00 +23°C° 0.9 mm 0 mps 708 mmHg 83%
    13:00 +26°C° 0.9 mm 1 mps 707 mmHg 82%
    14:00 +23°C° 0.9 mm 0 mps 707 mmHg 87%
    15:00 +22°C° 0.9 mm 0 mps 706 mmHg 91%
    16:00 +21°C° 0.9 mm 0 mps 705 mmHg 95%
    17:00 +23°C° 0.9 mm 1 mps 706 mmHg 95%
    18:00 +23°C° 0.9 mm 1 mps 706 mmHg 95%
    19:00 +22°C° 0.9 mm 1 mps 706 mmHg 95%
    20:00 +22°C° 0.4 mm 1 mps 707 mmHg 95%
    21:00 +22°C° 0.4 mm 1 mps 707 mmHg 94%
    22:00 +22°C° 0.4 mm 1 mps 708 mmHg 93%
    23:00 +22°C° 0.3 mm 1 mps 707 mmHg 92%

    26 May, Saturday

    Time Temperature Precipitation Wind Pressure Humidity
    00:00 +22°C° 0.3 mm 1 mps 707 mmHg 91%
    01:00 +22°C° 0.3 mm 1 mps 707 mmHg 90%
    02:00 +22°C° 0.3 mm 1 mps 707 mmHg 89%
    03:00 +22°C° 0.3 mm 1 mps 706 mmHg 88%
    04:00 +22°C° 0.3 mm 1 mps 706 mmHg 88%
    05:00 +22°C° 0.3 mm 1 mps 706 mmHg 87%
    06:00 +23°C° 0.3 mm 1 mps 707 mmHg 86%
    07:00 +23°C° 0.3 mm 1 mps 707 mmHg 86%
    08:00 +21°C° 0.4 mm 0 mps 708 mmHg 84%
    09:00 +22°C° 0.4 mm 0 mps 708 mmHg 81%
    10:00 +23°C° 0.4 mm 0 mps 708 mmHg 79%
    11:00 +23°C° 0.5 mm 0 mps 708 mmHg 81%
    12:00 +22°C° 0.5 mm 0 mps 707 mmHg 83%
    13:00 +22°C° 0.5 mm 0 mps 707 mmHg 85%
    14:00 +23°C° 0.2 mm 0 mps 706 mmHg 83%
    15:00 +23°C° 0.2 mm 0 mps 705 mmHg 81%
    16:00 +24°C° 0.2 mm 0 mps 705 mmHg 78%
    17:00 +25°C° 0.1 mm 1 mps 705 mmHg 81%
    18:00 +24°C° 0.1 mm 1 mps 705 mmHg 84%
    19:00 +23°C° 0.1 mm 1 mps 706 mmHg 87%
    20:00 +23°C° 0.2 mm 1 mps 706 mmHg 86%
    21:00 +23°C° 0.2 mm 1 mps 707 mmHg 86%
    22:00 +23°C° 0.2 mm 1 mps 707 mmHg 86%
    23:00 +23°C° 0.3 mm 1 mps 707 mmHg 86%

    27 May, Sunday

    Time Temperature Precipitation Wind Pressure Humidity
    00:00 +23°C° 0.3 mm 1 mps 707 mmHg 86%
    01:00 +23°C° 0.3 mm 1 mps 707 mmHg 85%
    02:00 +23°C° 0.4 mm 1 mps 706 mmHg 85%
    03:00 +22°C° 0.4 mm 1 mps 706 mmHg 85%
    04:00 +22°C° 0.4 mm 1 mps 706 mmHg 85%
    05:00 +23°C° 0.4 mm 1 mps 706 mmHg 85%
    06:00 +23°C° 0.4 mm 1 mps 707 mmHg 84%
    07:00 +21°C° 0.4 mm 0 mps 707 mmHg 83%
    08:00 +24°C° 0.5 mm 1 mps 708 mmHg 82%
    09:00 +25°C° 0.5 mm 1 mps 708 mmHg 80%
    10:00 +26°C° 0.5 mm 1 mps 708 mmHg 78%
    11:00 +26°C° 0.6 mm 1 mps 708 mmHg 78%
    12:00 +26°C° 0.6 mm 1 mps 707 mmHg 79%
    13:00 +26°C° 0.6 mm 1 mps 707 mmHg 79%
    14:00 +26°C° 0.1 mm 1 mps 706 mmHg 78%
    15:00 +26°C° 0.1 mm 1 mps 706 mmHg 77%
    16:00 +27°C° 0.1 mm 1 mps 705 mmHg 75%
    17:00 +26°C° 0 mm 1 mps 705 mmHg 79%
    18:00 +24°C° 0 mm 1 mps 706 mmHg 83%
    19:00 +23°C° 0 mm 1 mps 706 mmHg 87%
    20:00 +23°C° 0.1 mm 1 mps 707 mmHg 86%
    21:00 +23°C° 0.1 mm 1 mps 707 mmHg 85%
    22:00 +23°C° 0.1 mm 1 mps 708 mmHg 84%
    23:00 +23°C° 0.2 mm 1 mps 708 mmHg 83%
    Show more